BAW2158 TTPP-SYCJ

Flight info

Callsign BAW2158
Flight time 1h 0m
Altitude 37000
Route POS DCT VOKAV DCT GATUX DCT AKSIN DCT OGRUM
Aircraft B772/H-SDE2E3FGHIJ5LORVWXY/LB1D1

Departure

Time 2026-04-27 02:14
Airport Piarco International Airport (TTPP)

Arrival

Time 2026-04-27 03:14
Airport Cheddi Jagan International Airport (SYCJ)
Time Latitude Longitude Altitude Speed Heading
2026-04-27 01:46 10.59947 -61.34088 21 ft 0 kts 58°
2026-04-27 02:05 10.59936 -61.34105 24 ft 4 kts 58°
2026-04-27 02:05 10.59922 -61.34128 26 ft 4 kts 60°
2026-04-27 02:05 10.59909 -61.34152 26 ft 4 kts 60°
2026-04-27 02:05 10.59894 -61.34172 25 ft 2 kts 35°
2026-04-27 02:06 10.59873 -61.34183 26 ft 4 kts
2026-04-27 02:06 10.59848 -61.34184 26 ft 2 kts 360°
2026-04-27 02:06 10.59842 -61.34184 26 ft 0 kts 360°
2026-04-27 02:09 10.59857 -61.34184 26 ft 4 kts 360°
2026-04-27 02:09 10.59897 -61.34183 25 ft 8 kts
2026-04-27 02:09 10.59956 -61.34193 24 ft 9 kts 319°
2026-04-27 02:09 10.59931 -61.34239 23 ft 11 kts 191°
2026-04-27 02:10 10.59849 -61.34205 26 ft 15 kts 148°
2026-04-27 02:10 10.59738 -61.34192 22 ft 17 kts 210°
2026-04-27 02:10 10.59705 -61.34305 23 ft 17 kts 270°
2026-04-27 02:10 10.59703 -61.34426 24 ft 17 kts 267°
2026-04-27 02:11 10.59646 -61.34523 21 ft 17 kts 199°
2026-04-27 02:11 10.59526 -61.34528 23 ft 17 kts 179°
2026-04-27 02:11 10.59417 -61.34557 26 ft 17 kts 242°
2026-04-27 02:11 10.59403 -61.34678 24 ft 17 kts 260°
2026-04-27 02:12 10.59372 -61.34796 23 ft 17 kts 254°
2026-04-27 02:12 10.59353 -61.34917 24 ft 17 kts 269°
2026-04-27 02:12 10.59351 -61.35040 24 ft 17 kts 269°
2026-04-27 02:12 10.59362 -61.35161 25 ft 17 kts 297°
2026-04-27 02:13 10.59471 -61.35187 22 ft 17 kts 19°
2026-04-27 02:13 10.59535 -61.35091 23 ft 17 kts 87°
2026-04-27 02:13 10.59535 -61.34920 22 ft 42 kts 90°
2026-04-27 02:13 10.59537 -61.34405 24 ft 108 kts 90°
2026-04-27 02:14 10.59541 -61.33448 153 ft 155 kts 89°
2026-04-27 02:14 10.59565 -61.32309 822 ft 166 kts 90°
2026-04-27 02:14 10.59598 -61.31082 1510 ft 182 kts 87°
2026-04-27 02:14 10.59624 -61.29763 2306 ft 181 kts 91°
2026-04-27 02:15 10.59598 -61.28522 3353 ft 174 kts 90°
2026-04-27 02:15 10.59601 -61.27274 4047 ft 181 kts 90°
2026-04-27 02:15 10.59620 -61.25959 4687 ft 190 kts 90°
2026-04-27 02:15 10.59478 -61.24640 5289 ft 193 kts 112°
2026-04-27 02:16 10.58627 -61.23572 5875 ft 199 kts 140°
2026-04-27 02:16 10.57428 -61.22817 6473 ft 206 kts 148°
2026-04-27 02:16 10.56118 -61.22106 6917 ft 221 kts 152°
2026-04-27 02:16 10.54675 -61.21465 7475 ft 232 kts 155°
2026-04-27 02:17 10.53138 -61.20815 8033 ft 245 kts 155°
2026-04-27 02:17 10.51508 -61.20121 8613 ft 261 kts 155°
2026-04-27 02:17 10.49744 -61.19485 9194 ft 278 kts 161°
2026-04-27 02:17 10.47851 -61.18951 9808 ft 284 kts 163°
2026-04-27 02:18 10.45914 -61.18426 10474 ft 295 kts 163°
2026-04-27 02:18 10.43832 -61.17862 10690 ft 324 kts 163°
2026-04-27 02:18 10.41615 -61.17259 11233 ft 340 kts 163°
2026-04-27 02:18 10.39300 -61.16631 12031 ft 348 kts 163°
2026-04-27 02:19 10.36947 -61.15995 12935 ft 352 kts 163°
2026-04-27 02:19 10.34561 -61.15351 13864 ft 355 kts 163°
2026-04-27 02:19 10.32273 -61.14433 14486 ft 358 kts 149°
2026-04-27 02:19 10.30185 -61.13018 15268 ft 363 kts 142°
2026-04-27 02:20 10.28214 -61.11401 16158 ft 366 kts 139°
2026-04-27 02:20 10.26277 -61.09697 17048 ft 370 kts 139°
2026-04-27 02:20 10.24337 -61.07953 17903 ft 375 kts 139°
2026-04-27 02:20 10.22394 -61.06202 18674 ft 380 kts 139°
2026-04-27 02:21 10.20401 -61.04414 19402 ft 385 kts 139°
2026-04-27 02:21 10.18372 -61.02605 20176 ft 389 kts 139°
2026-04-27 02:21 10.16318 -61.00783 20937 ft 394 kts 139°
2026-04-27 02:21 10.14237 -60.98944 21700 ft 399 kts 139°
2026-04-27 02:22 10.12130 -60.97087 22445 ft 404 kts 139°
2026-04-27 02:22 10.09992 -60.95205 23177 ft 409 kts 139°
2026-04-27 02:22 10.07822 -60.93297 23846 ft 414 kts 139°
2026-04-27 02:22 10.05635 -60.91374 24460 ft 418 kts 139°
2026-04-27 02:23 10.03422 -60.89430 25091 ft 422 kts 139°
2026-04-27 02:23 10.01220 -60.87496 25697 ft 425 kts 139°
2026-04-27 02:23 9.98968 -60.85517 26263 ft 429 kts 139°
2026-04-27 02:23 9.96693 -60.83519 26830 ft 433 kts 139°
2026-04-27 02:24 9.94407 -60.81512 27388 ft 437 kts 139°
2026-04-27 02:24 9.92094 -60.79482 27921 ft 440 kts 139°
2026-04-27 02:24 9.89764 -60.77436 28452 ft 444 kts 139°
2026-04-27 02:24 9.87444 -60.75400 28934 ft 447 kts 139°
2026-04-27 02:25 9.85077 -60.73323 29347 ft 452 kts 139°
2026-04-27 02:25 9.82686 -60.71226 29788 ft 456 kts 139°
2026-04-27 02:25 9.80275 -60.69111 30227 ft 460 kts 139°
2026-04-27 02:25 9.77846 -60.66981 30617 ft 462 kts 139°
2026-04-27 02:26 9.75410 -60.64845 30983 ft 464 kts 139°
2026-04-27 02:26 9.72947 -60.62687 31298 ft 468 kts 139°
2026-04-27 02:26 9.70477 -60.60522 31610 ft 471 kts 139°
2026-04-27 02:26 9.67993 -60.58346 31928 ft 473 kts 139°
2026-04-27 02:27 9.65499 -60.56161 32225 ft 475 kts 139°
2026-04-27 02:27 9.63018 -60.53988 32511 ft 477 kts 139°
2026-04-27 02:27 9.60499 -60.51783 32773 ft 479 kts 139°
2026-04-27 02:27 9.57969 -60.49568 33063 ft 480 kts 139°
2026-04-27 02:28 9.55446 -60.47359 33427 ft 479 kts 139°
2026-04-27 02:28 9.52923 -60.45151 33861 ft 477 kts 139°
2026-04-27 02:28 9.50418 -60.42958 34238 ft 475 kts 140°
2026-04-27 02:28 9.47915 -60.40769 34541 ft 475 kts 140°
2026-04-27 02:29 9.45443 -60.38607 34834 ft 475 kts 140°
2026-04-27 02:29 9.42940 -60.36418 35164 ft 474 kts 140°
2026-04-27 02:29 9.40449 -60.34241 35511 ft 473 kts 140°
2026-04-27 02:29 9.37952 -60.32058 35874 ft 472 kts 140°
2026-04-27 02:30 9.35474 -60.29893 36196 ft 472 kts 140°
2026-04-27 02:30 9.32986 -60.27719 36544 ft 471 kts 140°
2026-04-27 02:30 9.30508 -60.25554 36893 ft 470 kts 140°
2026-04-27 02:30 9.28021 -60.23382 36955 ft 475 kts 140°
2026-04-27 02:31 9.23008 -60.19005 37001 ft 473 kts 140°
2026-04-27 02:31 9.18086 -60.14709 37006 ft 468 kts 140°
2026-04-27 02:32 9.13137 -60.10390 37012 ft 469 kts 140°
2026-04-27 02:32 9.08185 -60.06072 37013 ft 469 kts 140°
2026-04-27 02:33 9.03259 -60.01776 37013 ft 470 kts 140°
2026-04-27 02:33 8.98306 -59.97458 37011 ft 470 kts 140°
2026-04-27 02:34 8.93349 -59.93148 37007 ft 469 kts 141°
2026-04-27 02:34 8.87982 -59.89412 37010 ft 468 kts 150°
2026-04-27 02:35 8.82365 -59.86160 37012 ft 469 kts 150°
2026-04-27 02:35 8.76679 -59.82861 37012 ft 472 kts 150°
2026-04-27 02:36 8.70983 -59.79527 37006 ft 473 kts 150°
2026-04-27 02:36 8.66248 -59.76746 37006 ft 474 kts 150°
2026-04-27 02:37 8.60548 -59.73395 37010 ft 473 kts 150°
2026-04-27 02:37 8.53946 -59.69517 37009 ft 471 kts 150°
2026-04-27 02:38 8.49202 -59.66732 37000 ft 469 kts 149°
2026-04-27 02:38 8.43569 -59.63427 37002 ft 470 kts 149°
2026-04-27 02:39 8.37913 -59.60109 37010 ft 472 kts 149°
2026-04-27 02:39 8.32227 -59.56775 37009 ft 473 kts 149°
2026-04-27 02:40 8.26530 -59.53435 37013 ft 472 kts 149°
2026-04-27 02:40 8.20875 -59.50121 37005 ft 472 kts 149°
2026-04-27 02:41 8.15190 -59.46791 37000 ft 471 kts 149°
2026-04-27 02:41 8.09507 -59.43463 37002 ft 472 kts 149°
2026-04-27 02:42 8.03813 -59.40129 37006 ft 473 kts 149°
2026-04-27 02:42 7.98110 -59.36792 37003 ft 474 kts 149°
2026-04-27 02:43 7.92401 -59.33452 37001 ft 474 kts 149°
2026-04-27 02:43 7.86723 -59.30131 36999 ft 475 kts 149°
2026-04-27 02:44 7.81013 -59.26793 36997 ft 475 kts 149°
2026-04-27 02:44 7.75288 -59.23447 37000 ft 476 kts 149°
2026-04-27 02:45 7.69548 -59.20093 37001 ft 476 kts 149°
2026-04-27 02:45 7.63838 -59.16757 37002 ft 477 kts 149°
2026-04-27 02:46 7.58133 -59.13427 36939 ft 466 kts 149°
2026-04-27 02:46 7.55365 -59.11812 36854 ft 454 kts 149°
2026-04-27 02:46 7.52666 -59.10237 36771 ft 443 kts 149°
2026-04-27 02:47 7.50027 -59.08698 36471 ft 436 kts 149°
2026-04-27 02:47 7.47409 -59.07170 36006 ft 433 kts 148°
2026-04-27 02:47 7.44801 -59.05648 35534 ft 431 kts 148°
2026-04-27 02:47 7.42210 -59.04136 35069 ft 429 kts 148°
2026-04-27 02:48 7.39635 -59.02634 34628 ft 427 kts 148°
2026-04-27 02:48 7.37072 -59.01138 34168 ft 424 kts 148°
2026-04-27 02:48 7.34517 -58.99648 33682 ft 422 kts 148°
2026-04-27 02:48 7.32013 -58.98188 33184 ft 420 kts 148°
2026-04-27 02:49 7.29485 -58.96714 32658 ft 418 kts 148°
2026-04-27 02:49 7.26964 -58.95244 32130 ft 417 kts 148°
2026-04-27 02:49 7.24454 -58.93781 31607 ft 416 kts 148°
2026-04-27 02:49 7.21957 -58.92326 31095 ft 415 kts 148°
2026-04-27 02:50 7.19456 -58.90868 30598 ft 413 kts 149°
2026-04-27 02:50 7.16973 -58.89422 30085 ft 412 kts 149°
2026-04-27 02:50 7.14500 -58.87981 29528 ft 410 kts 148°
2026-04-27 02:50 7.12042 -58.86550 28955 ft 406 kts 148°
2026-04-27 02:51 7.09629 -58.85146 28398 ft 404 kts 148°
2026-04-27 02:51 7.07209 -58.83737 27849 ft 401 kts 148°
2026-04-27 02:51 7.04800 -58.82334 27315 ft 398 kts 148°
2026-04-27 02:51 7.02409 -58.80942 26782 ft 396 kts 148°
2026-04-27 02:52 7.00030 -58.79557 26234 ft 393 kts 148°
2026-04-27 02:52 6.97665 -58.78180 25738 ft 391 kts 148°
2026-04-27 02:52 6.95316 -58.76813 25239 ft 389 kts 148°
2026-04-27 02:52 6.92971 -58.75449 24755 ft 387 kts 148°
2026-04-27 02:53 6.90642 -58.74094 24270 ft 385 kts 148°
2026-04-27 02:53 6.88325 -58.72746 23788 ft 384 kts 147°
2026-04-27 02:53 6.86016 -58.71402 23263 ft 382 kts 147°
2026-04-27 02:53 6.83722 -58.70068 22703 ft 380 kts 147°
2026-04-27 02:54 6.81463 -58.68754 22160 ft 378 kts 147°
2026-04-27 02:54 6.79190 -58.67432 21620 ft 377 kts 147°
2026-04-27 02:54 6.76869 -58.66218 21111 ft 375 kts 155°
2026-04-27 02:54 6.74369 -58.65469 20635 ft 376 kts 167°
2026-04-27 02:55 6.71766 -58.65241 20165 ft 377 kts 178°
2026-04-27 02:55 6.69155 -58.65541 19703 ft 379 kts 189°
2026-04-27 02:55 6.66642 -58.66360 19252 ft 380 kts 201°
2026-04-27 02:55 6.64328 -58.67669 18803 ft 382 kts 212°
2026-04-27 02:56 6.62312 -58.69428 18360 ft 384 kts 224°
2026-04-27 02:56 6.60714 -58.71535 17866 ft 385 kts 237°
2026-04-27 02:56 6.59568 -58.73970 17368 ft 386 kts 249°
2026-04-27 02:56 6.58970 -58.76611 16873 ft 387 kts 263°
2026-04-27 02:57 6.58970 -58.79314 16384 ft 386 kts 276°
2026-04-27 02:57 6.59583 -58.81935 15907 ft 384 kts 290°
2026-04-27 02:57 6.60783 -58.84321 15438 ft 381 kts 305°
2026-04-27 02:57 6.62504 -58.86324 14964 ft 377 kts 320°
2026-04-27 02:58 6.64639 -58.87812 14518 ft 372 kts 335°
2026-04-27 02:58 6.67046 -58.88683 14065 ft 365 kts 351°
2026-04-27 02:58 6.69511 -58.88871 13640 ft 355 kts
2026-04-27 02:58 6.71850 -58.88354 13161 ft 334 kts 26°
2026-04-27 02:59 6.73729 -58.87131 12692 ft 314 kts 48°
2026-04-27 02:59 6.75016 -58.85436 12244 ft 298 kts 58°
2026-04-27 02:59 6.76153 -58.83735 11774 ft 289 kts 57°
2026-04-27 02:59 6.77327 -58.82107 11334 ft 287 kts 56°
2026-04-27 03:00 6.78531 -58.80491 10889 ft 290 kts 56°
2026-04-27 03:00 6.79657 -58.78815 10445 ft 286 kts 64°
2026-04-27 03:00 6.80212 -58.76920 10001 ft 282 kts 85°
2026-04-27 03:00 6.80349 -58.74971 9559 ft 283 kts 87°
2026-04-27 03:01 6.80473 -58.72985 9092 ft 283 kts 88°
2026-04-27 03:01 6.80295 -58.71041 8636 ft 280 kts 103°
2026-04-27 03:01 6.79775 -58.69165 8195 ft 275 kts 110°
2026-04-27 03:01 6.78746 -58.67549 7748 ft 277 kts 132°
2026-04-27 03:02 6.77208 -58.66380 7337 ft 279 kts 146°
2026-04-27 03:02 6.75549 -58.65366 6943 ft 280 kts 146°
2026-04-27 03:02 6.73881 -58.64368 6567 ft 280 kts 147°
2026-04-27 03:02 6.72192 -58.63371 6200 ft 280 kts 147°
2026-04-27 03:03 6.70534 -58.62401 5865 ft 277 kts 147°
2026-04-27 03:03 6.67232 -58.60480 5314 ft 268 kts 147°
2026-04-27 03:03 6.65633 -58.59551 5077 ft 262 kts 147°
2026-04-27 03:04 6.64074 -58.58646 4918 ft 254 kts 147°
2026-04-27 03:04 6.62580 -58.57777 4728 ft 248 kts 147°
2026-04-27 03:04 6.61094 -58.56915 4589 ft 245 kts 147°
2026-04-27 03:04 6.59643 -58.56072 4480 ft 236 kts 147°
2026-04-27 03:05 6.58221 -58.55245 4441 ft 239 kts 147°
2026-04-27 03:05 6.56784 -58.54409 4310 ft 237 kts 147°
2026-04-27 03:05 6.55365 -58.53581 4182 ft 235 kts 146°
2026-04-27 03:05 6.53957 -58.52755 4056 ft 233 kts 146°
2026-04-27 03:06 6.52554 -58.51937 3939 ft 233 kts 146°
2026-04-27 03:06 6.51154 -58.51124 3820 ft 232 kts 146°
2026-04-27 03:06 6.49794 -58.50336 3702 ft 224 kts 146°
2026-04-27 03:06 6.48472 -58.49570 3556 ft 215 kts 146°
2026-04-27 03:07 6.47192 -58.48827 3418 ft 209 kts 147°
2026-04-27 03:07 6.45954 -58.48109 3269 ft 203 kts 147°
2026-04-27 03:07 6.44741 -58.47403 3150 ft 200 kts 146°
2026-04-27 03:07 6.43534 -58.46702 3026 ft 200 kts 146°
2026-04-27 03:08 6.42404 -58.45910 2874 ft 198 kts 133°
2026-04-27 03:08 6.41441 -58.44931 2710 ft 194 kts 130°
2026-04-27 03:08 6.40507 -58.43961 2540 ft 191 kts 130°
2026-04-27 03:08 6.39583 -58.43015 2360 ft 189 kts 130°
2026-04-27 03:09 6.38678 -58.42097 2188 ft 185 kts 130°
2026-04-27 03:09 6.37779 -58.41192 2064 ft 183 kts 130°
2026-04-27 03:09 6.36931 -58.40239 1900 ft 180 kts 114°
2026-04-27 03:09 6.36740 -58.39053 1844 ft 173 kts 76°
2026-04-27 03:10 6.37260 -58.37982 1790 ft 171 kts 46°
2026-04-27 03:10 6.38138 -58.37172 1772 ft 172 kts 43°
2026-04-27 03:10 6.38993 -58.36323 1787 ft 171 kts 44°
2026-04-27 03:10 6.39814 -58.35497 1762 ft 165 kts 44°
2026-04-27 03:11 6.40629 -58.34679 1772 ft 163 kts 45°
2026-04-27 03:11 6.41416 -58.33889 1760 ft 157 kts 44°
2026-04-27 03:11 6.42183 -58.33120 1775 ft 159 kts 44°
2026-04-27 03:11 6.42982 -58.32315 1661 ft 165 kts 45°
2026-04-27 03:12 6.43780 -58.31513 1427 ft 157 kts 44°
2026-04-27 03:12 6.44544 -58.30746 1234 ft 153 kts 43°
2026-04-27 03:12 6.45285 -58.30001 1059 ft 149 kts 43°
2026-04-27 03:12 6.46030 -58.29252 868 ft 153 kts 43°
2026-04-27 03:13 6.46781 -58.28497 659 ft 155 kts 43°
2026-04-27 03:13 6.47549 -58.27726 463 ft 157 kts 41°
2026-04-27 03:13 6.48302 -58.26972 372 ft 148 kts 42°
2026-04-27 03:13 6.49017 -58.26255 221 ft 143 kts 41°
2026-04-27 03:14 6.49708 -58.25573 108 ft 124 kts 47°
2026-04-27 03:14 6.50153 -58.25118 101 ft 58 kts 44°
2026-04-27 03:14 6.50416 -58.24858 98 ft 51 kts 44°
2026-04-27 03:14 6.50595 -58.24686 97 ft 19 kts 31°
2026-04-27 03:15 6.50647 -58.24747 95 ft 17 kts 253°
2026-04-27 03:15 6.50573 -58.24856 98 ft 21 kts 221°
2026-04-27 03:15 6.50457 -58.24969 99 ft 25 kts 225°
2026-04-27 03:15 6.50349 -58.25082 100 ft 14 kts 243°
2026-04-27 03:16 6.50327 -58.25164 101 ft 12 kts 236°
2026-04-27 03:16 6.50284 -58.25221 101 ft 9 kts 245°
2026-04-27 03:16 6.50302 -58.25258 102 ft 0 kts 314°